| time (UTC) | temp C | wind direction | speed KPH | gust KPH | rain 1hr cm | rain 24hr cm | rain mn cm | humidity % | barometer mb |
| 20260504212512 | 18 | 65 | 9.7 | 38.6 | 0.00 | 0.00 | 0.00 | 49 | 1009.3 |
| 20260504212012 | 18 | 16 | 16.1 | 37.0 | 0.00 | 0.00 | 0.00 | 49 | 1009.1 |
| 20260504211511 | 18 | 21 | 14.5 | 29.0 | 0.00 | 0.00 | 0.00 | 49 | 1009.3 |
| 20260504211010 | 18 | 76 | 12.9 | 32.2 | 0.00 | 0.00 | 0.00 | 49 | 1009.2 |
| 20260504210517 | 18 | 105 | 16.1 | 32.2 | 0.00 | 0.00 | 0.00 | 49 | 1009.2 |
| 20260504210015 | 18 | 105 | 11.3 | 35.4 | 0.00 | 0.00 | 0.00 | 50 | 1009.2 |
| 20260504205511 | 18 | 30 | 14.5 | 38.6 | 0.00 | 0.00 | 0.00 | 49 | 1009.1 |
| 20260504205012 | 19 | 88 | 14.5 | 30.6 | 0.00 | 0.00 | 0.00 | 47 | 1009.1 |
| 20260504204511 | 18 | 51 | 14.5 | 43.5 | 0.00 | 0.00 | 0.00 | 47 | 1009.0 |
| 20260504204009 | 18 | 105 | 16.1 | 43.5 | 0.00 | 0.00 | 0.00 | 48 | 1009.1 |
| 20260504203509 | 18 | 83 | 17.7 | 40.2 | 0.00 | 0.00 | 0.00 | 49 | 1009.3 |
| 20260504203008 | 19 | 63 | 17.7 | 38.6 | 0.00 | 0.00 | 0.00 | 47 | 1009.2 |
| 20260504202508 | 19 | 59 | 16.1 | 35.4 | 0.00 | 0.00 | 0.00 | 46 | 1009.1 |
| 20260504201611 | 19 | 95 | 16.1 | 29.0 | 0.00 | 0.00 | 0.00 | 45 | 1009.4 |
| 20260504201008 | 19 | 78 | 12.9 | 30.6 | 0.00 | 0.00 | 0.00 | 45 | 1009.3 |
| 20260504200505 | 19 | 115 | 16.1 | 32.2 | 0.00 | 0.00 | 0.00 | 45 | 1009.3 |
| 20260504200005 | 19 | 39 | 17.7 | 33.8 | 0.00 | 0.00 | 0.00 | 45 | 1009.3 |
| 20260504195503 | 20 | 67 | 14.5 | 35.4 | 0.00 | 0.00 | 0.00 | 44 | 1009.3 |
| 20260504195007 | 20 | 63 | 17.7 | 37.0 | 0.00 | 0.00 | 0.00 | 44 | 1009.3 |
| 20260504194503 | 20 | 89 | 9.7 | 38.6 | 0.00 | 0.00 | 0.00 | 45 | 1009.5 |
| 20260504194003 | 20 | 66 | 11.3 | 46.7 | 0.00 | 0.00 | 0.00 | 45 | 1009.4 |
| 20260504193506 | 20 | 69 | 25.7 | 46.7 | 0.00 | 0.00 | 0.00 | 43 | 1009.4 |
| 20260504193002 | 20 | 84 | 16.1 | 33.8 | 0.00 | 0.00 | 0.00 | 43 | 1009.4 |
| 20260504192501 | 20 | 65 | 9.7 | 35.4 | 0.00 | 0.00 | 0.00 | 41 | 1009.4 |
| 20260504192002 | 20 | 53 | 16.1 | 35.4 | 0.00 | 0.00 | 0.00 | 42 | 1009.4 |
| 20260504191503 | 20 | 62 | 16.1 | 33.8 | 0.00 | 0.00 | 0.00 | 43 | 1009.4 |
| 20260504191001 | 20 | 130 | 17.7 | 37.0 | 0.00 | 0.00 | 0.00 | 39 | 1009.4 |
| 20260504190601 | 20 | 62 | 19.3 | 37.0 | 0.00 | 0.00 | 0.00 | 41 | 1009.4 |
| 20260504190100 | 20 | 68 | 19.3 | 35.4 | 0.00 | 0.00 | 0.00 | 41 | 1009.4 |
| 20260504185559 | 20 | 69 | 14.5 | 35.4 | 0.00 | 0.00 | 0.00 | 40 | 1009.6 |
| 20260504185059 | 20 | 76 | 8.0 | 37.0 | 0.00 | 0.00 | 0.00 | 39 | 1009.5 |
| 20260504184600 | 20 | 133 | 17.7 | 38.6 | 0.00 | 0.00 | 0.00 | 39 | 1009.6 |
| 20260504184058 | 20 | 105 | 17.7 | 35.4 | 0.00 | 0.00 | 0.00 | 41 | 1009.6 |
| 20260504183556 | 20 | 67 | 11.3 | 32.2 | 0.00 | 0.00 | 0.00 | 43 | 1009.5 |
| 20260504183056 | 20 | 59 | 17.7 | 32.2 | 0.00 | 0.00 | 0.00 | 39 | 1009.6 |
| 20260504182556 | 20 | 84 | 19.3 | 40.2 | 0.00 | 0.00 | 0.00 | 38 | 1009.7 |
| 20260504182054 | 20 | 76 | 20.9 | 40.2 | 0.00 | 0.00 | 0.00 | 39 | 1009.8 |
| 20260504181556 | 20 | 39 | 20.9 | 38.6 | 0.00 | 0.00 | 0.00 | 40 | 1009.9 |
| 20260504181054 | 20 | 66 | 12.9 | 33.8 | 0.00 | 0.00 | 0.00 | 40 | 1009.7 |
| 20260504180553 | 20 | 91 | 20.9 | 33.8 | 0.00 | 0.00 | 0.00 | 39 | 1009.9 |
| 20260504180054 | 20 | 70 | 12.9 | 32.2 | 0.00 | 0.00 | 0.00 | 43 | 1009.9 |
| 20260504175552 | 20 | 109 | 9.7 | 29.0 | 0.00 | 0.00 | 0.00 | 40 | 1010.0 |
| 20260504175051 | 20 | 122 | 14.5 | 30.6 | 0.00 | 0.00 | 0.00 | 40 | 1010.1 |
| 20260504174555 | 20 | 126 | 12.9 | 32.2 | 0.00 | 0.00 | 0.00 | 42 | 1010.3 |
| 20260504174051 | 20 | 95 | 14.5 | 32.2 | 0.00 | 0.00 | 0.00 | 43 | 1010.4 |
| 20260504173549 | 20 | 95 | 12.9 | 27.4 | 0.00 | 0.00 | 0.00 | 39 | 1010.3 |
| 20260504173049 | 20 | 109 | 11.3 | 29.0 | 0.00 | 0.00 | 0.00 | 40 | 1010.3 |
| 20260504172550 | 20 | 80 | 16.1 | 29.0 | 0.00 | 0.00 | 0.00 | 41 | 1010.3 |
| 20260504172050 | 20 | 12 | 8.0 | 27.4 | 0.00 | 0.00 | 0.00 | 41 | 1010.3 |
| 20260504171549 | 20 | 100 | 16.1 | 27.4 | 0.00 | 0.00 | 0.00 | 41 | 1010.4 |
| 20260504171048 | 20 | 19 | 11.3 | 27.4 | 0.00 | 0.00 | 0.00 | 42 | 1010.4 |
| 20260504170545 | 20 | 78 | 8.0 | 30.6 | 0.00 | 0.00 | 0.00 | 42 | 1010.4 |
| 20260504151024 | 18 | 210 | 12.9 | 22.5 | 0.00 | 0.00 | 0.00 | 41 | 1011.7 |
| 20260504150523 | 18 | 85 | 8.0 | 33.8 | 0.00 | 0.00 | 0.00 | 44 | 1011.8 |
| 20260504141013 | 16 | 95 | 12.9 | 29.0 | 0.00 | 0.00 | 0.00 | 46 | 1012.4 |
| 20260504140507 | 16 | 198 | 12.9 | 38.6 | 0.00 | 0.00 | 0.00 | 46 | 1012.4 |
| 20260504130549 | 15 | 85 | 4.8 | 30.6 | 0.00 | 0.00 | 0.00 | 53 | 1012.7 |
| 20260504110513 | 5 | 100 | 0.0 | 0.0 | 0.00 | 0.00 | 0.00 | 77 | 1012.6 |
| 20260504100558 | 2 | 76 | 1.6 | 6.4 | 0.00 | 0.00 | 0.00 | 81 | 1012.4 |
| 20260504082002 | 2 | 158 | 0.0 | 0.0 | 0.00 | 0.00 | 0.00 | 86 | 1012.0 |
| 20260504081502 | 2 | 164 | 0.0 | 0.0 | 0.00 | 0.00 | 0.00 | 86 | 1012.0 |
| 20260504081002 | 2 | 164 | 0.0 | 0.0 | 0.00 | 0.00 | 0.00 | 86 | 1012.0 |
| 20260504080502 | 2 | 164 | 0.0 | 0.0 | 0.00 | 0.00 | 0.00 | 85 | 1012.1 |
| 20260504050547 | 1 | 164 | 0.0 | 0.0 | 0.00 | 0.00 | 0.00 | 79 | 1012.0 |
| 20260504045548 | 2 | 165 | 0.0 | 0.0 | 0.00 | 0.00 | 0.00 | 79 | 1012.0 |
| 20260504045045 | 2 | 165 | 0.0 | 0.0 | 0.00 | 0.00 | 0.00 | 79 | 1012.0 |
| 20260504044547 | 2 | 165 | 0.0 | 0.0 | 0.00 | 0.00 | 0.00 | 79 | 1012.1 |
| 20260504044044 | 2 | 165 | 0.0 | 0.0 | 0.00 | 0.00 | 0.00 | 79 | 1012.0 |
| 20260504043543 | 2 | 165 | 0.0 | 0.0 | 0.00 | 0.00 | 0.00 | 80 | 1012.1 |
| 20260504043107 | 2 | 165 | 0.0 | 0.0 | 0.00 | 0.00 | 0.00 | 77 | 1012.1 |
| 20260504042541 | 2 | 164 | 0.0 | 0.0 | 0.00 | 0.00 | 0.00 | 77 | 1012.1 |
| 20260504042043 | 2 | 164 | 0.0 | 0.0 | 0.00 | 0.00 | 0.00 | 78 | 1012.1 |
| 20260504041541 | 2 | 165 | 0.0 | 0.0 | 0.00 | 0.00 | 0.00 | 78 | 1012.1 |
| 20260504041039 | 2 | 164 | 0.0 | 0.0 | 0.00 | 0.00 | 0.00 | 78 | 1012.0 |
| 20260504040539 | 2 | 164 | 0.0 | 0.0 | 0.00 | 0.00 | 0.00 | 77 | 1012.0 |
| 20260504040041 | 2 | 164 | 0.0 | 0.0 | 0.00 | 0.00 | 0.00 | 77 | 1011.8 |
| 20260504035538 | 2 | 165 | 0.0 | 0.0 | 0.00 | 0.00 | 0.00 | 75 | 1011.8 |
| 20260504035036 | 2 | 165 | 0.0 | 0.0 | 0.00 | 0.00 | 0.00 | 76 | 1011.7 |
| 20260504034545 | 2 | 165 | 0.0 | 0.0 | 0.00 | 0.00 | 0.00 | 75 | 1011.7 |
| 20260504034034 | 3 | 164 | 0.0 | 0.0 | 0.00 | 0.00 | 0.00 | 75 | 1011.8 |
| 20260504033534 | 3 | 165 | 0.0 | 0.0 | 0.00 | 0.00 | 0.00 | 74 | 1011.8 |
| 20260504033033 | 3 | 165 | 0.0 | 0.0 | 0.00 | 0.00 | 0.00 | 72 | 1011.7 |
| 20260504032533 | 3 | 165 | 0.0 | 0.0 | 0.00 | 0.00 | 0.00 | 74 | 1011.8 |
| 20260504032033 | 3 | 165 | 0.0 | 0.0 | 0.00 | 0.00 | 0.00 | 75 | 1011.7 |
| 20260504031535 | 3 | 165 | 0.0 | 0.0 | 0.00 | 0.00 | 0.00 | 75 | 1011.8 |
| 20260504031031 | 3 | 164 | 0.0 | 1.6 | 0.00 | 0.00 | 0.00 | 73 | 1011.8 |
| 20260504030533 | 3 | 164 | 0.0 | 3.2 | 0.00 | 0.00 | 0.00 | 73 | 1011.8 |
| 20260504030036 | 3 | 164 | 0.0 | 3.2 | 0.00 | 0.00 | 0.00 | 71 | 1011.7 |
| 20260504025531 | 3 | 164 | 0.0 | 3.2 | 0.00 | 0.00 | 0.00 | 71 | 1011.7 |
| 20260504025030 | 3 | 164 | 0.0 | 3.2 | 0.00 | 0.00 | 0.00 | 72 | 1011.7 |
| 20260504024534 | 3 | 165 | 0.0 | 4.8 | 0.00 | 0.00 | 0.00 | 72 | 1011.7 |
| 20260504024029 | 4 | 164 | 0.0 | 4.8 | 0.00 | 0.00 | 0.00 | 71 | 1011.7 |
| 20260504023529 | 4 | 164 | 0.0 | 0.0 | 0.00 | 0.00 | 0.00 | 70 | 1011.8 |
| 20260504023029 | 4 | 165 | 0.0 | 0.0 | 0.00 | 0.00 | 0.00 | 70 | 1011.7 |
| 20260504022529 | 4 | 164 | 0.0 | 0.0 | 0.00 | 0.00 | 0.00 | 69 | 1011.6 |
| 20260504022028 | 5 | 164 | 0.0 | 0.0 | 0.00 | 0.00 | 0.00 | 68 | 1011.7 |
| 20260504021530 | 5 | 164 | 0.0 | 0.0 | 0.00 | 0.00 | 0.00 | 67 | 1011.5 |
| 20260504021027 | 5 | 165 | 0.0 | 0.0 | 0.00 | 0.00 | 0.00 | 65 | 1011.5 |
| 20260504020527 | 5 | 164 | 0.0 | 0.0 | 0.00 | 0.00 | 0.00 | 64 | 1011.4 |
| 20260504020035 | 5 | 164 | 0.0 | 0.0 | 0.00 | 0.00 | 0.00 | 66 | 1011.4 |
| 20260504015527 | 5 | 164 | 0.0 | 0.0 | 0.00 | 0.00 | 0.00 | 65 | 1011.4 |
| 20260504015027 | 5 | 164 | 0.0 | 0.0 | 0.00 | 0.00 | 0.00 | 65 | 1011.4 |
| 20260504014526 | 5 | 164 | 0.0 | 0.0 | 0.00 | 0.00 | 0.00 | 66 | 1011.3 |
| 20260504014025 | 5 | 164 | 0.0 | 0.0 | 0.00 | 0.00 | 0.00 | 65 | 1011.3 |
| 20260504013526 | 5 | 164 | 0.0 | 0.0 | 0.00 | 0.00 | 0.00 | 64 | 1011.3 |
| 20260504013030 | 5 | 165 | 0.0 | 1.6 | 0.00 | 0.00 | 0.00 | 62 | 1011.2 |
| 20260504012523 | 5 | 164 | 0.0 | 3.2 | 0.00 | 0.00 | 0.00 | 62 | 1011.1 |
| 20260504012023 | 6 | 164 | 0.0 | 3.2 | 0.00 | 0.00 | 0.00 | 62 | 1011.1 |
| 20260504011522 | 6 | 164 | 0.0 | 0.0 | 0.00 | 0.00 | 0.00 | 59 | 1010.9 |
| 20260504011025 | 6 | 164 | 0.0 | 1.6 | 0.00 | 0.00 | 0.00 | 57 | 1010.9 |
| 20260504010522 | 6 | 164 | 0.0 | 1.6 | 0.00 | 0.00 | 0.00 | 56 | 1010.8 |
| 20260504010022 | 6 | 165 | 0.0 | 1.6 | 0.00 | 0.00 | 0.00 | 56 | 1010.7 |
| 20260504005521 | 6 | 164 | 0.0 | 0.0 | 0.00 | 0.00 | 0.00 | 55 | 1010.6 |
| 20260504005021 | 6 | 164 | 0.0 | 0.0 | 0.00 | 0.00 | 0.00 | 54 | 1010.6 |
| 20260504004536 | 7 | 164 | 0.0 | 0.0 | 0.00 | 0.00 | 0.00 | 53 | 1010.5 |
| 20260504004024 | 7 | 164 | 0.0 | 0.0 | 0.00 | 0.00 | 0.00 | 53 | 1010.4 |
| 20260504003522 | 7 | 164 | 0.0 | 3.2 | 0.00 | 0.00 | 0.00 | 53 | 1010.3 |
| 20260504003020 | 7 | 165 | 0.0 | 3.2 | 0.00 | 0.00 | 0.00 | 52 | 1010.2 |
| 20260504002521 | 8 | 164 | 0.0 | 3.2 | 0.00 | 0.00 | 0.00 | 51 | 1010.1 |
| 20260504002019 | 8 | 165 | 1.6 | 3.2 | 0.00 | 0.00 | 0.00 | 51 | 1010.0 |
| 20260504001530 | 8 | 165 | 0.0 | 3.2 | 0.00 | 0.00 | 0.00 | 50 | 1009.8 |
| 20260504001019 | 8 | 165 | 0.0 | 3.2 | 0.00 | 0.00 | 0.00 | 51 | 1009.8 |
| 20260504000519 | 8 | 165 | 0.0 | 4.8 | 0.00 | 0.00 | 0.00 | 50 | 1009.8 |
| 20260504000019 | 8 | 165 | 1.6 | 6.4 | 0.00 | 0.00 | 0.00 | 48 | 1009.8 |
| 20260503235519 | 9 | 171 | 0.0 | 6.4 | 0.00 | 0.00 | 0.00 | 49 | 1009.8 |
| 20260503235018 | 9 | 165 | 3.2 | 9.7 | 0.00 | 0.00 | 0.00 | 48 | 1009.7 |
| 20260503234520 | 9 | 186 | 1.6 | 9.7 | 0.00 | 0.00 | 0.00 | 48 | 1009.7 |
| 20260503234018 | 10 | 175 | 1.6 | 14.5 | 0.00 | 0.00 | 0.00 | 48 | 1009.7 |
| 20260503233519 | 10 | 218 | 3.2 | 19.3 | 0.00 | 0.00 | 0.00 | 47 | 1009.7 |
| 20260503233018 | 10 | 188 | 6.4 | 19.3 | 0.00 | 0.00 | 0.00 | 47 | 1009.6 |
| 20260503232518 | 10 | 217 | 1.6 | 16.1 | 0.00 | 0.00 | 0.00 | 47 | 1009.7 |
| 20260503232018 | 10 | 199 | 6.4 | 19.3 | 0.00 | 0.00 | 0.00 | 47 | 1009.5 |
| 20260503231521 | 10 | 219 | 8.0 | 19.3 | 0.00 | 0.00 | 0.00 | 44 | 1009.5 |
| 20260503231018 | 10 | 154 | 3.2 | 14.5 | 0.00 | 0.00 | 0.00 | 46 | 1009.5 |
| 20260503230517 | 10 | 211 | 6.4 | 20.9 | 0.00 | 0.00 | 0.00 | 47 | 1009.4 |
| 20260503230017 | 10 | 196 | 3.2 | 12.9 | 0.00 | 0.00 | 0.00 | 46 | 1009.3 |
| 20260503225516 | 10 | 176 | 4.8 | 16.1 | 0.00 | 0.00 | 0.00 | 46 | 1009.3 |
| 20260503225016 | 10 | 177 | 4.8 | 16.1 | 0.00 | 0.00 | 0.00 | 46 | 1009.3 |
| 20260503224516 | 10 | 226 | 6.4 | 14.5 | 0.00 | 0.00 | 0.00 | 44 | 1009.4 |
| 20260503224019 | 10 | 180 | 4.8 | 20.9 | 0.00 | 0.00 | 0.00 | 45 | 1009.3 |
| 20260503223519 | 10 | 120 | 4.8 | 27.4 | 0.00 | 0.00 | 0.00 | 44 | 1009.3 |
| 20260503223016 | 10 | 209 | 4.8 | 27.4 | 0.00 | 0.00 | 0.00 | 45 | 1009.2 |
| 20260503222515 | 10 | 207 | 11.3 | 37.0 | 0.00 | 0.00 | 0.00 | 44 | 1009.1 |
| 20260503222015 | 11 | 213 | 12.9 | 37.0 | 0.00 | 0.00 | 0.00 | 45 | 1009.0 |
| 20260503221516 | 11 | 203 | 6.4 | 24.1 | 0.00 | 0.00 | 0.00 | 45 | 1009.0 |
| 20260503221014 | 11 | 232 | 6.4 | 24.1 | 0.00 | 0.00 | 0.00 | 47 | 1009.1 |
| 20260503220514 | 11 | 275 | 6.4 | 20.9 | 0.00 | 0.00 | 0.00 | 44 | 1009.0 |
| 20260503220027 | 11 | 242 | 8.0 | 20.9 | 0.00 | 0.00 | 0.00 | 46 | 1009.0 |
| 20260503215514 | 11 | 218 | 8.0 | 19.3 | 0.00 | 0.00 | 0.00 | 46 | 1009.1 |
| 20260503215014 | 11 | 222 | 6.4 | 25.7 | 0.00 | 0.00 | 0.00 | 46 | 1009.0 |
| 20260503214527 | 11 | 203 | 9.7 | 27.4 | 0.00 | 0.00 | 0.00 | 45 | 1009.0 |
| 20260503214013 | 11 | 244 | 11.3 | 27.4 | 0.00 | 0.00 | 0.00 | 44 | 1009.1 |
| 20260503213512 | 11 | 189 | 9.7 | 30.6 | 0.00 | 0.00 | 0.00 | 43 | 1009.0 |
| 20260503213025 | 11 | 230 | 11.3 | 30.6 | 0.00 | 0.00 | 0.00 | 44 | 1009.0 |